Skip Navigation Links
NOAA logo - Click to go to the NOAA homepage
NOAA's National Weather Service
Alaska Aviation Weather Unit
  NWS logo - Click to go to the NWS homepage
Left Navbar Graphic     22 AKDT = 06 GMT

   
NOAA is celebrating 200 years of science, service, and stewardship. Visit the NOAA 200th celebration Web site to learn more.
USA.gov is the U.S. Government's official Web portal to all Federal, state and local government Web resources and services.
Facebook
NWS on Facebook

Important Change Regarding the AAWU Web Presence

 

Over the last several months, the AAWU has been working to navigate its webpages to a nationally supported server. Security, as well as other needs, have necessitated the change.  In the process, we have made an effort to enhance the functionality of our website, as well as some of our products. As of June 20, 2017, aawu.arh.noaa.gov will be discontinued. The new AAWU web address is weather.gov/aawu. It is now live and will run in-parallel with the old site until it is discontinued. Please send any feedback or questions regarding the new webpages to nws.ar.aawu.webauthors@noaa.gov.  Thank you for your patience during this time of transition.
AAWU Home :: Display TAF Add Bookmark
TAF PAFA 280537Z 2806/2912 17006KT P6SM VCSH BKN090 BKN140
     FM280800 VRB05KT P6SM SCT070 BKN120=
METAR PAFA 280053Z VRB04KT 10SM SCT070 BKN140 13/M05 A3003=

METAR PAFA 280153Z 17005KT 10SM BKN090 BKN140 14/M06 A3002=

METAR PAFA 280253Z 19008G14KT 10SM -RA BKN090 BKN140 13/M07 A3001=

METAR PAFA 280353Z 25008KT 10SM BKN090 BKN140 13/M06 A3001=

METAR PAFA 280453Z 17006KT 10SM BKN090 BKN140 13/M07 A3001=

METAR PAFA 280553Z 21005KT 10SM FEW090 BKN140 13/M06 A3001=


NOAA's National Weather Service
Alaska Aviation Weather Unit
6930 Sand Lake Road
Anchorage, AK 99502-1845
Disclaimer
Credits
Glossary
Privacy Policy
About Us
Career Opportunities
Contact AAWU Internet Services Site last modified: April, 17th 2012